Showing default

HULIANWANG DIGUI-11, 62971

Orbit data source: Space-Track

HULIANWANG DIGUI-11, 62971 is a payload satellite owned by Zhongguo Xingwang (CN) in LEO that was launched on Tue, 11 Feb 2025 UTC via a CHANG ZHENG 8A launch vehicle from the Wenchang Satellite Launch Center (WSC). Payload-class satellites include a variety of spacecraft equipped with specific instruments for various scientific and technological missions. These include communications satellites like Starlink; space stations such as the ISS; scientific satellites like the Hubble; Earth observation satellites from companies like Planet Labs, Umbra, and HawkEye 360; GPS; miniature CubeSats for education and research; and military/defense satellites.

Loading next visibility...
Identifier
62971, 2025-030A
Orbit
LEO
Country
Flag of CNCN / PRC
Related business
Manufacturer
CAST
Mission
Operational Civil Communications
Bus & Motor
GUOWANG C, Unknown motor
Mass
~800 kg wet, ~800 kg dry
Launch date (UTC)
2025-02-11 (7 months ago)
Launch vehicle
CHANG ZHENG 8A
Launch site
Wenchang Satellite Launch Center (WSC)
Object type
Payload
Rocket body
Debris
Shape & HBR
Box + 2 Pan, 5.0 m
Radar Cross Section
5.935 m², Large (>1 m²)

Expand to show TLE details & history
Last TLE update: 15 hours ago

TLE from 15 hours ago
0 HULIANWANG DIGUI-11
1 62971U 25030A   25260.18423609 -.00000092  00000-0  68928-4 0  9992
2 62971  49.9998 135.0279 0001235  54.7855 305.3132 13.29330412 29542
Epoch: 2025-09-17T04:25Z
TLE epoch observation values (Epoch: 2025-09-17T04:25:17.998Z)
Latitude
-0.00005°
Longitude
72.33904°
Altitude
1,149.259 km
Speed
7.28 km/s
True Right ascension
09h 00m 06s
True Declination
0° 00' 00"
Sunlit
Object was in daylight at epoch
Visualization orbit readout
Latitude
Unknown
Longitude
Unknown
Altitude
Unknown
Speed
Unknown
Apparent Right ascension
Unknown
Apparent Declination
Unknown
Sunlit
N/A
Visualization observer readout
Local Sidereal Time
11:58:46
Azimuth
Unknown
Elevation
Unknown
Doppler factor
Unknown
Orbital elements
Apogee altitude
1,150.925 km
Perigee altitude
1,149.066 km
Semi-major axis
7,528.132 km
Eccentricity
0.00012
Inclination
49.9998°
RAAN
135.0279°
Arg. of periapsis
54.7855°
True anomaly
305.30165°
Mean anomaly
305.3132°
Eccentric anomaly
305.30743°
Mean motion
3.32286 °/min
Orbital period
108.34 mins
BSTAR
0.000068928
Loading maneuver chart data...
Computing Atmospheric mass density...
Loading historical data...
Loading historical data...
Loading historical data...
Loading historical data...
Loading historical data...
Loading historical data...
Loading historical data...

Documentation

Showing up to 5 results
|